SL-8 R/B

Satellite information

Favourite Embed

Satellite Type and Status

ROCKET BODYIN ORBIT

Key statistics

Satellite SL-8 R/B at a glance.

Uptime

15866

Days in orbit

Revolutions

≈ 13.8

Per day

Orbit

LEO

Low Earth Orbit

Inclination

83.0

Latest

Satellite identification and parameters

Extended collection of information and parameters for SL-8 R/B.

Object identification

Identified? True

Debris? False

Object name: SL-8 R/B

International designator: 1982-069B

Object number (NORAD): 13354

Object ID (CCSDS): 13354

Country: COMMONWEALTH OF INDEPENDENT STATES (CIS)

Current information (Y/N): Y

RCS size: LARGE

Orbital parameters

Period: 104.404 minutes

Inclination: 82.9592 deg

SMA: 7344.678 km

Apoapsis: 1005.375 km

Periapsis: 927.71 km

RAAN: 194.7967 deg

Eccentricy: 0.00528714

Argument of periapsis: 62.4413 deg

Mean anomaly: 298.2102 deg

Mean motion: 13.79252125 rev/day

Mean motion (dot): 0.00000165 rev/day2

B* drag term: 0.00014369741 1/REarth

Two-line elements (TLE)

Creation date: Dec. 12, 2025, 10:14 a.m.

Reference frame: TEME

Reference center: EARTH

Epoch: Dec. 12, 2025, 1:12 a.m. UTC

TLE line 0: 0 SL-8 R/B

TLE line 1: 1 13354U 82069B 25346.05019346 .00000165 00000-0 14370-3 0 9999

TLE line 2: 2 13354 82.9592 194.7967 0052871 62.4413 298.2102 13.79252125184610

Live tracking on map

Real-time ground track for satellite SL-8 R/B.

In-orbit conjunctions

A list of the most updated potential collisions computed for object SL-8 R/B.

Target Orbit TCA Probability of collision Miss distance Type
COSMOS 894 DEB LEO 2024-10-19 09:37:58 0.0001169595 217.0 (m) DEBRIS

Associated space launch

Navigation satellite providing location information for the Tsiklon-B navigation system

SL-8 R/B was lifted into orbit during the mission ‘Kosmos-3M | Parus 34’, on board a Kosmos-3M space rocket.

The launch took place on July 7, 1982, 9:47 a.m. from 132/1 (132L).

For more information about the launch, click the button.

Launch to space Kosmos-3M | Parus 34
Kosmos-3M | Parus 34

Agency: N/A

Status: Launch Successful

Launch date: July 7, 1982, 9:47 a.m. UTC

Rocket: Kosmos-3M

Launch pad: 132/1 (132L)

Location: Plesetsk Cosmodrome, Russian Federation

...

Latest news about this satellite

There are no fresh news available about this satellite. Check back as we update our databases every day.


Newsletter sign-up

Weekly statistics, charts and insights to help you stay on top of the space industry.